EW3016 Weather Reports


Display with metric or nautical units.
time (UTC)temp
F
wind
direction
speed
MPH
gust
MPH
rain 1hr
in
rain 24hr
in
rain mn
in
humidity
%
barometer
mb
20260507143016 46 293 5.0 15.0 0.00 0.18 0.01 65 1010.8
20260507140016 45 293 5.0 16.0 0.00 0.23 0.01 66 1011.1
20260507133016 44 293 5.0 16.0 0.00 0.30 0.01 64 1011.1
20260507130015 42 293 4.0 13.0 0.00 0.36 0.01 71 1010.8
20260507123016 41 293 2.0 11.0 0.00 0.38 0.01 72 1010.8
20260507120016 39 0.0 0.0 0.00 0.39 0.01 81 1010.6
20260507113017 37 0.0 4.0 0.00 0.41 0.01 89 1010.3
20260507110016 35 0.0 0.0 0.00 0.45 0.01 86 1010.1
20260507103016 35 0.0 0.0 0.00 0.48 0.01 86 1009.8
20260507100016 36 293 1.0 8.0 0.00 0.50 0.01 85 1009.8
20260507093018 37 293 3.0 12.0 0.00 0.52 0.01 84 1009.7
20260507090017 37 293 1.0 8.0 0.00 0.52 0.01 88 1009.8
20260507083039 38 293 1.0 5.0 0.00 0.52 0.01 90 1009.9
20260507080017 39 293 1.0 8.0 0.00 0.52 0.01 91 1010.2
20260507073019 40 293 3.0 15.0 0.01 0.52 0.01 92 1010.5
20260507070017 42 293 2.0 11.0 0.01 0.52 0.01 95 1010.4
20260507063017 42 270 1.0 11.0 0.00 0.51 0.00 95 1010.1
20260507060017 42 293 1.0 9.0 0.00 0.51 0.00 95 1009.6
20260507053017 43 0.0 7.0 0.00 0.51 0.00 95 1010.0
20260507050019 43 0.0 0.0 0.00 0.51 0.00 95 1010.3
20260507043017 43 0.0 0.0 0.00 0.51 0.00 95 1010.1
20260507040017 43 0.0 0.0 0.00 0.51 0.51 95 1009.9
20260507033017 43 0.0 0.0 0.00 0.51 0.51 95 1010.0
20260507030037 43 0.0 0.0 0.00 0.51 0.51 94 1009.6
20260507023017 43 0.0 0.0 0.00 0.51 0.51 94 1010.0
20260507020016 43 293 1.0 7.0 0.00 0.51 0.51 94 1009.9
20260507013017 44 270 1.0 7.0 0.01 0.51 0.51 95 1010.2
20260507010017 44 293 1.0 9.0 0.01 0.51 0.51 94 1009.6
20260507003016 44 293 1.0 5.0 0.00 0.50 0.50 94 1009.4
20260507000017 45 293 1.0 7.0 0.00 0.50 0.50 94 1009.1
20260506233017 45 293 1.0 5.0 0.00 0.50 0.50 94 1008.9
20260506230016 45 293 1.0 8.0 0.00 0.50 0.50 94 1008.3
20260506223016 46 293 1.0 7.0 0.01 0.50 0.50 94 1007.9
20260506220018 46 270 1.0 8.0 0.01 0.50 0.50 94 1007.8
20260506213016 46 293 3.0 10.0 0.01 0.49 0.49 94 1007.1
20260506210016 47 293 5.0 14.0 0.02 0.50 0.49 93 1006.4
20260506203036 48 293 3.0 13.0 0.01 0.64 0.48 93 1005.9
20260506200016 50 293 6.0 13.0 0.00 0.63 0.47 92 1005.5
20260506193016 55 248 4.0 13.0 0.00 0.63 0.47 88 1005.4
20260506190038 58 225 2.0 13.0 0.00 0.63 0.47 90 1005.3
20260506183018 58 180 3.0 12.0 0.00 0.63 0.47 91 1005.2
20260506180016 59 158 4.0 14.0 0.00 0.63 0.47 92 1005.2
20260506173016 58 180 3.0 15.0 0.01 0.63 0.47 93 1005.3
20260506170016 57 158 2.0 14.0 0.03 0.63 0.47 93 1005.5
20260506163016 57 158 3.0 13.0 0.07 0.62 0.46 93 1005.6
20260506160018 57 135 3.0 15.0 0.08 0.60 0.44 93 1005.7
20260506153016 57 158 3.0 14.0 0.05 0.55 0.39 92 1005.9
20260506150036 57 135 5.0 12.0 0.07 0.52 0.36 93 1005.8